Location: Newark
(37.4167°N, 6.2889°W)
Time: 21:11:53
(UTC+00:00)

OTV 5 (USA 277) - Visible Passes

Search period start: 17 October 2019 00:00
Search period end: 27 October 2019 00:00
Orbit: 310 x 324 km, 54.5° (Epoch: 08 October)

Date Brightness Start Highest point End Pass type
(mag) Time Alt. Az. Time Alt. Az. Time Alt. Az.
17 Oct ? 05:54:13 10° NNW 05:56:17 19° NE 05:58:19 10° E visible
19 Oct ? 04:50:31 13° NNE 04:50:59 13° NNE 04:52:23 10° ENE visible
20 Oct ? 05:05:08 26° NNE 05:05:46 28° NE 05:08:11 10° ESE visible
21 Oct ? 05:19:54 57° NW 05:20:22 87° SW 05:23:05 10° SE visible
22 Oct ? 05:34:47 24° SW 05:34:48 24° SW 05:37:05 10° S visible
26 Oct ? 19:40:10 10° SW 19:40:20 11° SW 19:40:20 11° SW visible
